Time,TemperatureF,DewpointF,PressureIn,WindDirection,WindDirectionDegrees,WindSpeedMPH,WindSpeedGustMPH,Humidity,HourlyPrecipIn,Conditions,Clouds,dailyrainin,SoftwareType,DateUTC
2013-08-20 00:02:00,65.0,65.0,-100.00,SSW,209,4.0,8.0,100,0.00,,,0.00,,2013-08-20 05:02:00,
2013-08-20 00:43:00,63.0,63.0,-100.00,SSW,207,3.0,5.0,100,0.00,,,0.00,,2013-08-20 05:43:00,
2013-08-20 00:52:00,63.0,63.0,-100.00,SSW,207,3.0,5.0,100,0.00,,,0.00,,2013-08-20 05:52:00,
2013-08-20 01:01:00,63.0,63.0,-100.00,SSW,207,3.0,5.0,100,0.00,,,0.00,,2013-08-20 06:01:00,
2013-08-20 01:42:00,63.0,63.0,-100.00,SSW,212,1.0,4.0,100,0.00,,,0.00,,2013-08-20 06:42:00,
2013-08-20 01:52:00,63.0,63.0,-100.00,SSW,212,1.0,4.0,100,0.00,,,0.00,,2013-08-20 06:52:00,
2013-08-20 02:01:00,63.0,63.0,-100.00,SSW,212,1.0,4.0,100,0.00,,,0.00,,2013-08-20 07:01:00,
2013-08-20 02:42:00,62.0,62.0,-100.00,SSW,200,1.0,3.0,100,0.00,,,0.00,,2013-08-20 07:42:00,
2013-08-20 02:52:00,62.0,62.0,-100.00,SSW,200,1.0,3.0,100,0.00,,,0.00,,2013-08-20 07:52:00,
2013-08-20 03:02:00,62.0,62.0,-100.00,SSW,200,1.0,3.0,100,0.00,,,0.00,,2013-08-20 08:02:00,
2013-08-20 03:42:00,61.0,61.0,-100.00,SE,134,0.0,2.0,100,0.00,,,0.00,,2013-08-20 08:42:00,
2013-08-20 03:52:00,61.0,61.0,-100.00,SE,134,0.0,2.0,100,0.00,,,0.00,,2013-08-20 08:52:00,
2013-08-20 04:01:00,61.0,61.0,-100.00,SE,134,0.0,2.0,100,0.00,,,0.00,,2013-08-20 09:01:00,
2013-08-20 04:42:00,61.0,61.0,-100.00,SE,144,1.0,4.0,100,0.00,,,0.00,,2013-08-20 09:42:00,
2013-08-20 04:53:00,61.0,61.0,-100.00,SE,144,1.0,4.0,100,0.00,,,0.00,,2013-08-20 09:53:00,
2013-08-20 05:04:00,61.0,61.0,-100.00,SE,144,1.0,4.0,100,0.00,,,0.00,,2013-08-20 10:04:00,
2013-08-20 05:43:00,60.0,60.0,-100.00,South,174,2.0,5.0,100,0.00,,,0.00,,2013-08-20 10:43:00,
2013-08-20 05:52:00,60.0,60.0,-100.00,South,174,2.0,5.0,100,0.00,,,0.00,,2013-08-20 10:52:00,
2013-08-20 06:02:00,60.0,60.0,-100.00,South,174,2.0,5.0,100,0.00,,,0.00,,2013-08-20 11:02:00,
2013-08-20 06:42:00,61.0,61.0,-100.00,SSE,163,3.0,6.0,100,0.00,,,0.00,,2013-08-20 11:42:00,
2013-08-20 06:52:00,61.0,61.0,-100.00,SSE,163,3.0,6.0,100,0.00,,,0.00,,2013-08-20 11:52:00,
2013-08-20 07:01:00,61.0,61.0,-100.00,SSE,163,3.0,6.0,100,0.00,,,0.00,,2013-08-20 12:01:00,
2013-08-20 07:42:00,63.0,63.0,-100.00,SSE,160,3.0,4.0,100,0.00,,,0.00,,2013-08-20 12:42:00,
2013-08-20 07:52:00,63.0,63.0,-100.00,SSE,160,3.0,4.0,100,0.00,,,0.00,,2013-08-20 12:52:00,
2013-08-20 08:01:00,63.0,63.0,-100.00,SSE,160,3.0,4.0,100,0.00,,,0.00,,2013-08-20 13:01:00,
2013-08-20 08:42:00,68.0,68.0,-100.00,South,180,4.0,7.0,100,0.00,,,0.00,,2013-08-20 13:42:00,
2013-08-20 08:52:00,68.0,68.0,-100.00,South,180,4.0,7.0,100,0.00,,,0.00,,2013-08-20 13:52:00,
2013-08-20 09:02:00,68.0,68.0,-100.00,South,180,4.0,7.0,100,0.00,,,0.00,,2013-08-20 14:02:00,
2013-08-20 09:42:00,74.0,67.0,-100.00,SSW,196,6.0,10.0,80,0.00,,,0.00,,2013-08-20 14:42:00,
2013-08-20 09:52:00,74.0,67.0,-100.00,SSW,196,6.0,10.0,80,0.00,,,0.00,,2013-08-20 14:52:00,
2013-08-20 10:02:00,74.0,67.0,-100.00,SSW,196,6.0,10.0,80,0.00,,,0.00,,2013-08-20 15:02:00,
2013-08-20 10:43:00,78.0,67.0,-100.00,SSW,203,8.0,13.0,68,0.00,,,0.00,,2013-08-20 15:43:00,
2013-08-20 10:53:00,78.0,67.0,-100.00,SSW,203,8.0,13.0,68,0.00,,,0.00,,2013-08-20 15:53:00,
2013-08-20 11:04:00,78.0,67.0,-100.00,SSW,203,8.0,13.0,68,0.00,,,0.00,,2013-08-20 16:04:00,
2013-08-20 11:30:00,-999.0,-99.9,-100.00,SSW,198,10.0,15.0,62,0.00,,,0.00,,2013-08-20 16:30:00,
2013-08-20 11:42:00,82.0,68.0,-100.00,SSW,198,10.0,15.0,62,0.00,,,0.00,,2013-08-20 16:42:00,
2013-08-20 11:53:00,82.0,68.0,-100.00,SSW,198,10.0,15.0,62,0.00,,,0.00,,2013-08-20 16:53:00,
2013-08-20 12:03:00,82.0,68.0,-100.00,SSW,198,10.0,15.0,62,0.00,,,0.00,,2013-08-20 17:03:00,
2013-08-20 12:43:00,83.0,67.0,-100.00,SW,214,11.0,17.0,58,0.00,,,0.00,,2013-08-20 17:43:00,
2013-08-20 12:52:00,83.0,67.0,-100.00,SW,214,11.0,17.0,58,0.00,,,0.00,,2013-08-20 17:52:00,
2013-08-20 13:02:00,83.0,67.0,-100.00,SW,214,11.0,17.0,58,0.00,,,0.00,,2013-08-20 18:02:00,
2013-08-20 13:43:00,84.0,67.0,-100.00,SSW,208,11.0,21.0,57,0.00,,,0.00,,2013-08-20 18:43:00,
2013-08-20 13:52:00,84.0,67.0,-100.00,SSW,208,11.0,21.0,57,0.00,,,0.00,,2013-08-20 18:52:00,
2013-08-20 14:01:00,84.0,67.0,-100.00,SSW,208,11.0,21.0,57,0.00,,,0.00,,2013-08-20 19:01:00,
2013-08-20 14:42:00,84.0,66.0,-100.00,SSW,203,12.0,23.0,55,0.00,,,0.00,,2013-08-20 19:42:00,
2013-08-20 14:53:00,84.0,66.0,-100.00,SSW,203,12.0,23.0,55,0.00,,,0.00,,2013-08-20 19:53:00,
2013-08-20 15:03:00,84.0,66.0,-100.00,SSW,203,12.0,23.0,55,0.00,,,0.00,,2013-08-20 20:03:00,
2013-08-20 15:42:00,86.0,67.0,-100.00,SSW,203,11.0,20.0,54,0.00,,,0.00,,2013-08-20 20:42:00,
2013-08-20 15:52:00,86.0,67.0,-100.00,SSW,203,11.0,20.0,54,0.00,,,0.00,,2013-08-20 20:52:00,
2013-08-20 16:02:00,86.0,67.0,-100.00,SSW,203,11.0,20.0,54,0.00,,,0.00,,2013-08-20 21:02:00,
2013-08-20 17:42:00,85.0,68.0,-100.00,SSW,203,11.0,20.0,56,0.00,,,0.00,,2013-08-20 22:42:00,
2013-08-20 17:53:00,85.0,68.0,-100.00,SSW,203,11.0,20.0,56,0.00,,,0.00,,2013-08-20 22:53:00,
2013-08-20 18:03:00,85.0,68.0,-100.00,SSW,203,11.0,20.0,56,0.00,,,0.00,,2013-08-20 23:03:00,
2013-08-20 18:43:00,83.0,67.0,-100.00,SSW,204,12.0,22.0,59,0.00,,,0.00,,2013-08-20 23:43:00,
2013-08-20 18:53:00,83.0,67.0,-100.00,SSW,204,12.0,22.0,59,0.00,,,0.00,,2013-08-20 23:53:00,
2013-08-20 19:02:00,83.0,67.0,-100.00,SSW,204,12.0,22.0,59,0.00,,,0.00,,2013-08-21 00:02:00,
2013-08-20 19:42:00,80.0,69.0,-100.00,SSW,199,5.0,18.0,69,0.00,,,0.00,,2013-08-21 00:42:00,
2013-08-20 19:52:00,80.0,69.0,-100.00,SSW,199,5.0,18.0,69,0.00,,,0.00,,2013-08-21 00:52:00,
2013-08-20 20:02:00,80.0,69.0,-100.00,SSW,199,5.0,18.0,69,0.00,,,0.00,,2013-08-21 01:02:00,
2013-08-20 20:42:00,75.0,69.0,-100.00,SSW,193,5.0,13.0,81,0.00,,,0.00,,2013-08-21 01:42:00,
2013-08-20 20:52:00,75.0,69.0,-100.00,SSW,193,5.0,13.0,81,0.00,,,0.00,,2013-08-21 01:52:00,
2013-08-20 21:02:00,75.0,69.0,-100.00,SSW,193,5.0,13.0,81,0.00,,,0.00,,2013-08-21 02:02:00,
2013-08-20 21:42:00,76.0,69.0,-100.00,SSW,197,8.0,14.0,78,0.00,,,0.00,,2013-08-21 02:42:00,
2013-08-20 21:52:00,76.0,69.0,-100.00,SSW,197,8.0,14.0,78,0.00,,,0.00,,2013-08-21 02:52:00,
2013-08-20 22:02:00,76.0,69.0,-100.00,SSW,197,8.0,14.0,78,0.00,,,0.00,,2013-08-21 03:02:00,
2013-08-20 22:44:00,75.0,69.0,-100.00,SSW,192,8.0,14.0,81,0.00,,,0.00,,2013-08-21 03:44:00,
2013-08-20 22:55:00,75.0,69.0,-100.00,SSW,192,8.0,14.0,81,0.00,,,0.00,,2013-08-21 03:55:00,
2013-08-20 23:04:00,75.0,69.0,-100.00,SSW,192,8.0,14.0,81,0.00,,,0.00,,2013-08-21 04:04:00,
2013-08-20 23:44:00,72.0,69.0,-100.00,SSW,194,6.0,10.0,91,0.00,,,0.00,,2013-08-21 04:44:00,
2013-08-20 23:54:00,72.0,69.0,-100.00,SSW,194,6.0,10.0,91,0.00,,,0.00,,2013-08-21 04:54:00,